| time (UTC) | temp C | wind direction | speed KPH | gust KPH | rain 1hr cm | rain 24hr cm | rain mn cm | humidity % | barometer mb |
| 20260507021009 | 16 | 279 | 0.0 | 1.6 | 0.00 | 0.00 | 0.00 | 86 | 1009.1 |
| 20260507020508 | 16 | 279 | 0.0 | 3.2 | 0.00 | 0.00 | 0.00 | 85 | 1009.0 |
| 20260507020010 | 16 | 259 | 0.0 | 3.2 | 0.00 | 0.00 | 0.00 | 85 | 1008.9 |
| 20260507015508 | 16 | 259 | 0.0 | 1.6 | 0.00 | 0.00 | 0.00 | 85 | 1009.0 |
| 20260507015008 | 16 | 252 | 0.0 | 1.6 | 0.00 | 0.00 | 0.00 | 85 | 1008.8 |
| 20260507014510 | 16 | 248 | 0.0 | 3.2 | 0.00 | 0.00 | 0.00 | 85 | 1008.8 |
| 20260507014010 | 16 | 248 | 0.0 | 3.2 | 0.00 | 0.00 | 0.00 | 84 | 1008.5 |
| 20260507013508 | 17 | 248 | 0.0 | 3.2 | 0.00 | 0.00 | 0.00 | 84 | 1008.9 |
| 20260507013008 | 17 | 248 | 0.0 | 3.2 | 0.00 | 0.00 | 0.00 | 84 | 1008.9 |
| 20260507012508 | 17 | 241 | 0.0 | 3.2 | 0.00 | 0.00 | 0.00 | 84 | 1009.0 |
| 20260507012007 | 17 | 247 | 0.0 | 3.2 | 0.00 | 0.00 | 0.00 | 84 | 1009.0 |
| 20260507011521 | 17 | 239 | 0.0 | 4.8 | 0.00 | 0.00 | 0.00 | 84 | 1009.2 |
| 20260507011009 | 17 | 225 | 1.6 | 4.8 | 0.00 | 0.00 | 0.00 | 84 | 1009.1 |
| 20260507010510 | 17 | 221 | 1.6 | 6.4 | 0.00 | 0.00 | 0.00 | 83 | 1009.1 |
| 20260507010005 | 17 | 230 | 1.6 | 6.4 | 0.00 | 0.00 | 0.00 | 83 | 1009.2 |
| 20260507005508 | 17 | 270 | 1.6 | 4.8 | 0.00 | 0.00 | 0.00 | 83 | 1008.9 |
| 20260507005007 | 17 | 219 | 1.6 | 6.4 | 0.00 | 0.00 | 0.00 | 82 | 1009.0 |
| 20260507004505 | 17 | 301 | 1.6 | 8.0 | 0.00 | 0.00 | 0.00 | 83 | 1008.9 |
| 20260507004005 | 17 | 232 | 3.2 | 8.0 | 0.00 | 0.00 | 0.00 | 83 | 1008.7 |
| 20260507003507 | 17 | 242 | 3.2 | 9.7 | 0.00 | 0.00 | 0.00 | 83 | 1008.7 |
| 20260507003004 | 17 | 240 | 4.8 | 9.7 | 0.00 | 0.00 | 0.00 | 83 | 1008.4 |
| 20260507002504 | 17 | 219 | 3.2 | 6.4 | 0.00 | 0.00 | 0.00 | 83 | 1008.4 |
| 20260507002004 | 17 | 228 | 1.6 | 6.4 | 0.00 | 0.00 | 0.00 | 82 | 1008.4 |
| 20260507001503 | 17 | 236 | 3.2 | 6.4 | 0.00 | 0.00 | 0.00 | 82 | 1008.3 |
| 20260507001006 | 17 | 220 | 1.6 | 6.4 | 0.00 | 0.00 | 0.00 | 81 | 1008.4 |
| 20260507000504 | 17 | 229 | 3.2 | 6.4 | 0.00 | 0.00 | 0.00 | 81 | 1008.3 |
| 20260507000003 | 18 | 233 | 1.6 | 6.4 | 0.00 | 0.00 | 0.00 | 80 | 1008.3 |
| 20260506235504 | 18 | 227 | 3.2 | 6.4 | 0.00 | 0.00 | 0.00 | 80 | 1008.4 |
| 20260506235003 | 18 | 223 | 3.2 | 6.4 | 0.00 | 0.00 | 0.00 | 80 | 1008.4 |
| 20260506234504 | 18 | 246 | 1.6 | 12.9 | 0.00 | 0.00 | 0.00 | 79 | 1008.4 |
| 20260506234002 | 18 | 229 | 3.2 | 12.9 | 0.00 | 0.00 | 0.00 | 79 | 1008.4 |
| 20260506233503 | 18 | 246 | 4.8 | 9.7 | 0.00 | 0.00 | 0.00 | 78 | 1008.5 |
| 20260506233002 | 18 | 236 | 4.8 | 11.3 | 0.00 | 0.00 | 0.00 | 78 | 1008.4 |
| 20260506232501 | 18 | 236 | 4.8 | 12.9 | 0.00 | 0.00 | 0.00 | 78 | 1008.4 |
| 20260506232001 | 19 | 255 | 3.2 | 14.5 | 0.00 | 0.00 | 0.00 | 78 | 1008.4 |
| 20260506231501 | 19 | 232 | 3.2 | 11.3 | 0.00 | 0.00 | 0.00 | 77 | 1008.4 |
| 20260506231001 | 19 | 234 | 4.8 | 11.3 | 0.00 | 0.00 | 0.00 | 77 | 1008.5 |
| 20260506230501 | 19 | 221 | 0.0 | 11.3 | 0.00 | 0.00 | 0.00 | 77 | 1008.4 |
| 20260506230001 | 19 | 248 | 1.6 | 11.3 | 0.00 | 0.00 | 0.00 | 77 | 1008.5 |
| 20260506225604 | 19 | 209 | 0.0 | 16.1 | 0.00 | 0.00 | 0.00 | 77 | 1008.5 |
| 20260506225100 | 19 | 206 | 0.0 | 16.1 | 0.00 | 0.00 | 0.00 | 77 | 1008.5 |
| 20260506224607 | 19 | 263 | 3.2 | 12.9 | 0.00 | 0.00 | 0.00 | 77 | 1008.4 |
| 20260506224059 | 19 | 227 | 3.2 | 12.9 | 0.00 | 0.00 | 0.00 | 77 | 1008.1 |
| 20260506223559 | 19 | 235 | 4.8 | 12.9 | 0.00 | 0.00 | 0.00 | 77 | 1008.2 |
| 20260506223100 | 19 | 194 | 0.0 | 8.0 | 0.00 | 0.00 | 0.00 | 76 | 1008.3 |
| 20260506222559 | 19 | 256 | 0.0 | 12.9 | 0.00 | 0.00 | 0.00 | 76 | 1008.2 |
| 20260506222100 | 19 | 219 | 1.6 | 14.5 | 0.00 | 0.00 | 0.00 | 76 | 1008.3 |
| 20260506221559 | 19 | 246 | 4.8 | 14.5 | 0.00 | 0.00 | 0.00 | 76 | 1008.2 |
| 20260506221058 | 19 | 223 | 3.2 | 11.3 | 0.00 | 0.00 | 0.00 | 76 | 1008.3 |
| 20260506220558 | 19 | 248 | 0.0 | 1.6 | 0.00 | 0.00 | 0.00 | 76 | 1008.3 |
| 20260506215558 | 19 | 254 | 4.8 | 19.3 | 0.00 | 0.00 | 0.00 | 75 | 1008.3 |
| 20260506215057 | 20 | 248 | 3.2 | 12.9 | 0.00 | 0.00 | 0.00 | 75 | 1008.2 |
| 20260506214559 | 20 | 235 | 8.0 | 14.5 | 0.00 | 0.00 | 0.00 | 75 | 1008.2 |
| 20260506214057 | 20 | 225 | 8.0 | 14.5 | 0.00 | 0.00 | 0.00 | 75 | 1008.2 |
| 20260506213558 | 20 | 216 | 0.0 | 4.8 | 0.00 | 0.00 | 0.00 | 75 | 1008.1 |
| 20260506213101 | 20 | 239 | 0.0 | 1.6 | 0.00 | 0.00 | 0.00 | 75 | 1008.0 |
| 20260506212557 | 20 | 211 | 0.0 | 1.6 | 0.00 | 0.00 | 0.00 | 75 | 1008.0 |
| 20260506212058 | 20 | 244 | 0.0 | 22.5 | 0.00 | 0.00 | 0.00 | 75 | 1007.9 |
| 20260506211557 | 20 | 225 | 0.0 | 22.5 | 0.00 | 0.00 | 0.00 | 74 | 1007.8 |
| 20260506211056 | 20 | 236 | 12.9 | 29.0 | 0.00 | 0.00 | 0.00 | 73 | 1007.8 |
| 20260506210557 | 20 | 279 | 12.9 | 25.7 | 0.00 | 0.00 | 0.00 | 72 | 1007.7 |
| 20260506210056 | 21 | 213 | 16.1 | 25.7 | 0.00 | 0.00 | 0.00 | 71 | 1007.7 |
| 20260506205555 | 21 | 226 | 11.3 | 25.7 | 0.00 | 0.00 | 0.00 | 72 | 1007.6 |
| 20260506205055 | 21 | 213 | 14.5 | 29.0 | 0.00 | 0.00 | 0.00 | 72 | 1007.6 |
| 20260506204556 | 21 | 217 | 16.1 | 29.0 | 0.00 | 0.00 | 0.00 | 73 | 1007.5 |
| 20260506204055 | 20 | 247 | 14.5 | 29.0 | 0.00 | 0.00 | 0.00 | 73 | 1007.4 |
| 20260506203554 | 20 | 209 | 12.9 | 29.0 | 0.00 | 0.00 | 0.00 | 73 | 1007.4 |
| 20260506203054 | 20 | 229 | 16.1 | 25.7 | 0.00 | 0.00 | 0.00 | 73 | 1007.5 |
| 20260506202554 | 20 | 240 | 14.5 | 27.4 | 0.00 | 0.00 | 0.00 | 74 | 1007.5 |
| 20260506202053 | 20 | 217 | 11.3 | 27.4 | 0.00 | 0.00 | 0.00 | 74 | 1007.6 |
| 20260506201556 | 20 | 238 | 14.5 | 29.0 | 0.00 | 0.00 | 0.00 | 74 | 1007.6 |
| 20260506201052 | 20 | 235 | 16.1 | 29.0 | 0.00 | 0.00 | 0.00 | 74 | 1007.7 |
| 20260506200552 | 19 | 222 | 9.7 | 19.3 | 0.00 | 0.00 | 0.00 | 74 | 1007.7 |
| 20260506200051 | 19 | 217 | 11.3 | 27.4 | 0.00 | 0.00 | 0.00 | 74 | 1007.8 |
| 20260506195551 | 20 | 225 | 12.9 | 27.4 | 0.00 | 0.00 | 0.00 | 74 | 1007.9 |
| 20260506195050 | 20 | 195 | 14.5 | 25.7 | 0.00 | 0.00 | 0.00 | 74 | 1007.9 |
| 20260506194551 | 20 | 228 | 16.1 | 32.2 | 0.00 | 0.00 | 0.00 | 74 | 1007.9 |
| 20260506194051 | 20 | 218 | 17.7 | 32.2 | 0.00 | 0.00 | 0.00 | 74 | 1008.0 |
| 20260506193553 | 19 | 238 | 16.1 | 29.0 | 0.00 | 0.00 | 0.00 | 74 | 1008.1 |
| 20260506193048 | 19 | 230 | 16.1 | 30.6 | 0.00 | 0.00 | 0.00 | 74 | 1008.2 |
| 20260506192547 | 19 | 235 | 14.5 | 32.2 | 0.00 | 0.00 | 0.00 | 74 | 1008.4 |
| 20260506192048 | 19 | 236 | 16.1 | 32.2 | 0.00 | 0.00 | 0.00 | 74 | 1008.4 |
| 20260506191548 | 19 | 232 | 17.7 | 30.6 | 0.00 | 0.00 | 0.00 | 74 | 1008.4 |
| 20260506191047 | 19 | 228 | 17.7 | 35.4 | 0.00 | 0.00 | 0.00 | 74 | 1008.4 |
| 20260506190547 | 20 | 219 | 20.9 | 37.0 | 0.00 | 0.00 | 0.00 | 73 | 1008.6 |
| 20260506190049 | 20 | 223 | 20.9 | 37.0 | 0.00 | 0.00 | 0.00 | 73 | 1008.4 |
| 20260506185545 | 20 | 219 | 20.9 | 37.0 | 0.00 | 0.00 | 0.00 | 73 | 1008.5 |
| 20260506185044 | 20 | 190 | 19.3 | 37.0 | 0.00 | 0.00 | 0.00 | 73 | 1008.6 |
| 20260506184549 | 20 | 229 | 19.3 | 37.0 | 0.00 | 0.00 | 0.00 | 73 | 1008.7 |
| 20260506184043 | 20 | 241 | 19.3 | 37.0 | 0.00 | 0.00 | 0.00 | 73 | 1008.8 |
| 20260506183545 | 20 | 238 | 20.9 | 40.2 | 0.00 | 0.00 | 0.00 | 72 | 1008.8 |
| 20260506183042 | 20 | 215 | 24.1 | 38.6 | 0.00 | 0.00 | 0.00 | 71 | 1008.9 |
| 20260506182541 | 20 | 237 | 22.5 | 40.2 | 0.00 | 0.00 | 0.00 | 71 | 1008.8 |
| 20260506182041 | 20 | 240 | 19.3 | 30.6 | 0.00 | 0.00 | 0.00 | 72 | 1008.9 |
| 20260506181541 | 20 | 219 | 17.7 | 30.6 | 0.00 | 0.00 | 0.00 | 73 | 1008.9 |
| 20260506181040 | 19 | 245 | 17.7 | 25.7 | 0.00 | 0.00 | 0.00 | 74 | 1009.0 |
| 20260506180539 | 19 | 184 | 14.5 | 27.4 | 0.00 | 0.00 | 0.00 | 75 | 1008.9 |
| 20260506180043 | 18 | 234 | 12.9 | 30.6 | 0.00 | 0.00 | 0.00 | 76 | 1009.0 |
| 20260506175539 | 18 | 201 | 11.3 | 30.6 | 0.00 | 0.00 | 0.00 | 77 | 1009.0 |
| 20260506175038 | 18 | 217 | 9.7 | 25.7 | 0.00 | 0.00 | 0.00 | 78 | 1009.2 |
| 20260506174537 | 18 | 238 | 11.3 | 25.7 | 0.00 | 0.00 | 0.00 | 76 | 1009.2 |
| 20260506174038 | 18 | 207 | 12.9 | 25.7 | 0.00 | 0.00 | 0.00 | 76 | 1009.4 |
| 20260506173538 | 18 | 219 | 9.7 | 22.5 | 0.00 | 0.00 | 0.00 | 75 | 1009.4 |
| 20260506173058 | 18 | 198 | 11.3 | 32.2 | 0.00 | 0.00 | 0.00 | 74 | 1009.4 |
| 20260506172537 | 19 | 222 | 12.9 | 20.9 | 0.00 | 0.00 | 0.00 | 73 | 1009.4 |
| 20260506172037 | 19 | 168 | 11.3 | 30.6 | 0.00 | 0.00 | 0.00 | 73 | 1009.3 |
| 20260506171537 | 19 | 228 | 12.9 | 30.6 | 0.00 | 0.00 | 0.00 | 73 | 1009.3 |
| 20260506171038 | 19 | 240 | 12.9 | 25.7 | 0.00 | 0.00 | 0.00 | 74 | 1009.4 |
| 20260506170536 | 19 | 192 | 14.5 | 30.6 | 0.00 | 0.00 | 0.00 | 73 | 1009.5 |
| 20260506170039 | 19 | 232 | 16.1 | 29.0 | 0.00 | 0.00 | 0.00 | 72 | 1009.4 |
| 20260506165533 | 20 | 240 | 14.5 | 29.0 | 0.00 | 0.00 | 0.00 | 71 | 1009.8 |
| 20260506165033 | 20 | 218 | 0.0 | 4.8 | 0.00 | 0.00 | 0.00 | 70 | 1009.9 |
| 20260506164534 | 20 | 227 | 0.0 | 4.8 | 0.00 | 0.00 | 0.00 | 70 | 1010.1 |
| 20260506164031 | 20 | 248 | 0.0 | 0.0 | 0.00 | 0.00 | 0.00 | 69 | 1010.2 |
| 20260506163535 | 20 | 225 | 0.0 | 0.0 | 0.00 | 0.00 | 0.00 | 69 | 1010.3 |
| 20260506163037 | 20 | 233 | 0.0 | 0.0 | 0.00 | 0.00 | 0.00 | 69 | 1010.4 |
| 20260506162530 | 20 | 223 | 0.0 | 0.0 | 0.00 | 0.00 | 0.00 | 68 | 1010.4 |
| 20260506162033 | 20 | 209 | 0.0 | 0.0 | 0.00 | 0.00 | 0.00 | 69 | 1010.5 |
| 20260506161530 | 20 | 207 | 0.0 | 0.0 | 0.00 | 0.00 | 0.00 | 69 | 1010.4 |
| 20260506161031 | 20 | 219 | 0.0 | 0.0 | 0.00 | 0.00 | 0.00 | 69 | 1010.5 |
| 20260506160529 | 20 | 225 | 0.0 | 0.0 | 0.00 | 0.00 | 0.00 | 68 | 1010.5 |
| 20260506160030 | 20 | 206 | 0.0 | 0.0 | 0.00 | 0.00 | 0.00 | 68 | 1010.5 |
| 20260506155528 | 20 | 213 | 0.0 | 0.0 | 0.00 | 0.00 | 0.00 | 69 | 1010.4 |
| 20260506155028 | 20 | 213 | 0.0 | 0.0 | 0.00 | 0.00 | 0.00 | 68 | 1010.6 |
| 20260506154527 | 21 | 218 | 0.0 | 0.0 | 0.00 | 0.00 | 0.00 | 68 | 1010.6 |
| 20260506154027 | 21 | 202 | 0.0 | 0.0 | 0.00 | 0.00 | 0.00 | 68 | 1010.7 |
| 20260506153528 | 21 | 213 | 0.0 | 0.0 | 0.00 | 0.00 | 0.00 | 67 | 1010.7 |
| 20260506153028 | 21 | 217 | 0.0 | 0.0 | 0.00 | 0.00 | 0.00 | 68 | 1010.7 |
| 20260506152528 | 21 | 248 | 0.0 | 0.0 | 0.00 | 0.00 | 0.00 | 67 | 1010.7 |
| 20260506152027 | 21 | 209 | 0.0 | 0.0 | 0.00 | 0.00 | 0.00 | 69 | 1010.8 |
| 20260506151528 | 21 | 192 | 0.0 | 0.0 | 0.00 | 0.00 | 0.00 | 69 | 1010.8 |
| 20260506151030 | 21 | 185 | 0.0 | 0.0 | 0.00 | 0.00 | 0.00 | 69 | 1010.6 |
| 20260506150528 | 21 | 223 | 0.0 | 0.0 | 0.00 | 0.00 | 0.00 | 68 | 1010.6 |
| 20260506150026 | 21 | 236 | 0.0 | 0.0 | 0.00 | 0.00 | 0.00 | 67 | 1010.6 |
| 20260506145525 | 21 | 203 | 0.0 | 0.0 | 0.00 | 0.00 | 0.00 | 63 | 1010.5 |
| 20260506145025 | 21 | 212 | 0.0 | 0.0 | 0.00 | 0.00 | 0.00 | 64 | 1010.6 |
| 20260506144529 | 21 | 234 | 0.0 | 0.0 | 0.00 | 0.00 | 0.00 | 65 | 1010.7 |
| 20260506144023 | 21 | 210 | 0.0 | 0.0 | 0.00 | 0.00 | 0.00 | 66 | 1010.7 |
| 20260506143522 | 21 | 196 | 0.0 | 0.0 | 0.00 | 0.00 | 0.00 | 66 | 1011.0 |
| 20260506143025 | 21 | 252 | 0.0 | 0.0 | 0.00 | 0.00 | 0.00 | 69 | 1011.0 |
| 20260506142520 | 21 | 229 | 0.0 | 0.0 | 0.00 | 0.00 | 0.00 | 68 | 1011.1 |
| 20260506142020 | 21 | 240 | 0.0 | 0.0 | 0.00 | 0.00 | 0.00 | 68 | 1010.9 |
| 20260506141519 | 21 | 227 | 0.0 | 0.0 | 0.00 | 0.00 | 0.00 | 68 | 1010.9 |
| 20260506141020 | 20 | 235 | 0.0 | 0.0 | 0.00 | 0.00 | 0.00 | 69 | 1011.0 |
| 20260506140518 | 20 | 208 | 0.0 | 0.0 | 0.00 | 0.00 | 0.00 | 67 | 1010.9 |
| 20260506140018 | 20 | 228 | 0.0 | 32.2 | 0.00 | 0.00 | 0.00 | 68 | 1010.9 |
| 20260506135516 | 20 | 217 | 6.4 | 32.2 | 0.00 | 0.00 | 0.00 | 68 | 1010.9 |
| 20260506135016 | 20 | 225 | 14.5 | 27.4 | 0.00 | 0.00 | 0.00 | 67 | 1010.9 |
| 20260506134515 | 20 | 244 | 11.3 | 25.7 | 0.00 | 0.00 | 0.00 | 69 | 1010.9 |
| 20260506134015 | 20 | 214 | 9.7 | 24.1 | 0.00 | 0.00 | 0.00 | 69 | 1011.0 |
| 20260506133518 | 20 | 236 | 14.5 | 25.7 | 0.00 | 0.00 | 0.00 | 69 | 1011.0 |
| 20260506133012 | 20 | 235 | 9.7 | 24.1 | 0.00 | 0.00 | 0.00 | 70 | 1011.1 |
| 20260506132517 | 19 | 221 | 6.4 | 25.7 | 0.00 | 0.00 | 0.00 | 69 | 1011.1 |
| 20260506132011 | 19 | 228 | 14.5 | 25.7 | 0.00 | 0.00 | 0.00 | 70 | 1011.2 |
| 20260506131512 | 19 | 231 | 11.3 | 27.4 | 0.00 | 0.00 | 0.00 | 71 | 1011.3 |
| 20260506131011 | 19 | 239 | 16.1 | 27.4 | 0.00 | 0.00 | 0.00 | 70 | 1011.4 |
| 20260506130511 | 19 | 238 | 11.3 | 25.7 | 0.00 | 0.00 | 0.00 | 71 | 1011.4 |
| 20260506130011 | 19 | 244 | 6.4 | 29.0 | 0.00 | 0.00 | 0.00 | 71 | 1011.3 |
| 20260506125510 | 19 | 217 | 14.5 | 29.0 | 0.00 | 0.00 | 0.00 | 71 | 1011.5 |
| 20260506125010 | 19 | 240 | 4.8 | 27.4 | 0.00 | 0.00 | 0.00 | 70 | 1011.5 |
| 20260506124510 | 19 | 232 | 16.1 | 30.6 | 0.00 | 0.00 | 0.00 | 70 | 1011.3 |
| 20260506124008 | 19 | 234 | 14.5 | 30.6 | 0.00 | 0.00 | 0.00 | 70 | 1011.3 |
| 20260506123507 | 18 | 228 | 17.7 | 30.6 | 0.00 | 0.00 | 0.00 | 72 | 1011.3 |
| 20260506123006 | 18 | 231 | 16.1 | 30.6 | 0.00 | 0.00 | 0.00 | 73 | 1011.4 |
| 20260506122506 | 18 | 215 | 16.1 | 29.0 | 0.00 | 0.00 | 0.00 | 72 | 1011.3 |
| 20260506122004 | 18 | 234 | 16.1 | 25.7 | 0.00 | 0.00 | 0.00 | 73 | 1011.3 |
| 20260506121509 | 18 | 212 | 11.3 | 20.9 | 0.00 | 0.00 | 0.00 | 74 | 1011.3 |
| 20260506121002 | 18 | 218 | 11.3 | 29.0 | 0.00 | 0.00 | 0.00 | 75 | 1011.3 |
| 20260506120502 | 17 | 211 | 16.1 | 29.0 | 0.00 | 0.00 | 0.00 | 74 | 1011.2 |
| 20260506120002 | 17 | 226 | 14.5 | 25.7 | 0.00 | 0.00 | 0.00 | 74 | 1011.1 |
| 20260506115502 | 17 | 188 | 16.1 | 27.4 | 0.00 | 0.00 | 0.00 | 74 | 1011.1 |
| 20260506115002 | 17 | 207 | 12.9 | 29.0 | 0.00 | 0.00 | 0.00 | 73 | 1011.1 |
| 20260506114501 | 18 | 184 | 16.1 | 29.0 | 0.00 | 0.00 | 0.00 | 74 | 1011.0 |
| 20260506114100 | 17 | 200 | 16.1 | 33.8 | 0.00 | 0.00 | 0.00 | 74 | 1011.0 |
| 20260506113559 | 17 | 226 | 16.1 | 32.2 | 0.00 | 0.00 | 0.00 | 75 | 1011.0 |
| 20260506113100 | 17 | 221 | 14.5 | 25.7 | 0.00 | 0.00 | 0.00 | 75 | 1011.1 |
| 20260506112558 | 17 | 229 | 9.7 | 25.7 | 0.00 | 0.00 | 0.00 | 76 | 1011.1 |
| 20260506112056 | 17 | 217 | 11.3 | 29.0 | 0.00 | 0.00 | 0.00 | 76 | 1011.1 |
| 20260506111557 | 17 | 224 | 14.5 | 29.0 | 0.00 | 0.00 | 0.00 | 76 | 1011.1 |
| 20260506111058 | 17 | 206 | 11.3 | 29.0 | 0.00 | 0.00 | 0.00 | 77 | 1011.1 |
| 20260506110555 | 17 | 258 | 12.9 | 22.5 | 0.00 | 0.00 | 0.00 | 77 | 1011.2 |
| 20260506110101 | 16 | 234 | 11.3 | 27.4 | 0.00 | 0.00 | 0.00 | 78 | 1011.2 |
| 20260506105555 | 16 | 204 | 14.5 | 27.4 | 0.00 | 0.00 | 0.00 | 78 | 1011.3 |
| 20260506105056 | 16 | 234 | 12.9 | 25.7 | 0.00 | 0.00 | 0.00 | 79 | 1011.4 |
| 20260506104558 | 16 | 225 | 11.3 | 24.1 | 0.00 | 0.00 | 0.00 | 80 | 1011.3 |
| 20260506104055 | 16 | 213 | 9.7 | 19.3 | 0.00 | 0.00 | 0.00 | 81 | 1011.3 |
| 20260506103555 | 15 | 216 | 8.0 | 29.0 | 0.00 | 0.00 | 0.00 | 82 | 1011.2 |
| 20260506103059 | 15 | 196 | 9.7 | 29.0 | 0.00 | 0.00 | 0.00 | 81 | 1011.3 |
| 20260506102559 | 15 | 226 | 11.3 | 29.0 | 0.00 | 0.00 | 0.00 | 82 | 1011.3 |
| 20260506102054 | 15 | 219 | 11.3 | 29.0 | 0.00 | 0.00 | 0.00 | 82 | 1011.3 |
| 20260506101603 | 15 | 219 | 11.3 | 27.4 | 0.00 | 0.00 | 0.00 | 82 | 1011.1 |
| 20260506101053 | 15 | 207 | 11.3 | 20.9 | 0.00 | 0.00 | 0.00 | 82 | 1011.2 |
| 20260506100552 | 15 | 205 | 9.7 | 19.3 | 0.00 | 0.00 | 0.00 | 83 | 1011.1 |
| 20260506100109 | 15 | 213 | 9.7 | 19.3 | 0.00 | 0.00 | 0.00 | 83 | 1011.1 |
| 20260506095553 | 15 | 224 | 11.3 | 20.9 | 0.00 | 0.00 | 0.00 | 83 | 1011.2 |
| 20260506095052 | 15 | 236 | 9.7 | 17.7 | 0.00 | 0.00 | 0.00 | 83 | 1011.1 |
| 20260506094551 | 15 | 225 | 11.3 | 22.5 | 0.00 | 0.00 | 0.00 | 83 | 1011.1 |
| 20260506094049 | 15 | 207 | 11.3 | 22.5 | 0.00 | 0.00 | 0.00 | 83 | 1011.2 |
| 20260506093547 | 15 | 227 | 9.7 | 17.7 | 0.00 | 0.00 | 0.00 | 83 | 1011.2 |
| 20260506093050 | 15 | 205 | 8.0 | 20.9 | 0.00 | 0.00 | 0.00 | 83 | 1011.2 |
| 20260506092545 | 15 | 225 | 9.7 | 17.7 | 0.00 | 0.00 | 0.00 | 83 | 1011.2 |
| 20260506092044 | 15 | 226 | 9.7 | 19.3 | 0.00 | 0.00 | 0.00 | 82 | 1011.2 |
| 20260506091544 | 15 | 187 | 11.3 | 19.3 | 0.00 | 0.00 | 0.00 | 82 | 1011.2 |
| 20260506091043 | 15 | 226 | 9.7 | 22.5 | 0.00 | 0.00 | 0.00 | 82 | 1011.2 |
| 20260506090543 | 15 | 221 | 9.7 | 22.5 | 0.00 | 0.00 | 0.00 | 82 | 1011.2 |
| 20260506090044 | 15 | 240 | 11.3 | 22.5 | 0.00 | 0.00 | 0.00 | 82 | 1011.4 |
| 20260506085540 | 15 | 227 | 11.3 | 19.3 | 0.00 | 0.00 | 0.00 | 82 | 1011.3 |
| 20260506085040 | 16 | 190 | 11.3 | 19.3 | 0.00 | 0.00 | 0.00 | 81 | 1011.4 |
| 20260506084600 | 16 | 198 | 9.7 | 27.4 | 0.00 | 0.00 | 0.00 | 81 | 1011.5 |
| 20260506084039 | 16 | 238 | 9.7 | 27.4 | 0.00 | 0.00 | 0.00 | 81 | 1011.4 |
| 20260506083539 | 16 | 239 | 9.7 | 22.5 | 0.00 | 0.00 | 0.00 | 81 | 1011.5 |
| 20260506083039 | 16 | 214 | 12.9 | 25.7 | 0.00 | 0.00 | 0.00 | 81 | 1011.6 |
| 20260506082538 | 16 | 221 | 12.9 | 25.7 | 0.00 | 0.00 | 0.00 | 81 | 1011.6 |
| 20260506082036 | 16 | 178 | 11.3 | 24.1 | 0.00 | 0.00 | 0.00 | 81 | 1011.6 |
| 20260506081541 | 16 | 236 | 12.9 | 25.7 | 0.00 | 0.00 | 0.00 | 81 | 1011.6 |
| 20260506081035 | 16 | 216 | 11.3 | 25.7 | 0.00 | 0.00 | 0.00 | 81 | 1011.6 |
| 20260506080534 | 16 | 217 | 14.5 | 25.7 | 0.00 | 0.00 | 0.00 | 81 | 1011.5 |
| 20260506073040 | 16 | 209 | 9.7 | 24.1 | 0.00 | 0.00 | 0.00 | 81 | 1011.5 |
| 20260506072530 | 16 | 209 | 12.9 | 24.1 | 0.00 | 0.00 | 0.00 | 81 | 1011.4 |
| 20260506072031 | 16 | 214 | 12.9 | 20.9 | 0.00 | 0.00 | 0.00 | 81 | 1011.5 |
| 20260506071530 | 16 | 220 | 12.9 | 24.1 | 0.00 | 0.00 | 0.00 | 81 | 1011.5 |
| 20260506071028 | 16 | 227 | 12.9 | 22.5 | 0.00 | 0.00 | 0.00 | 81 | 1011.5 |
| 20260506070528 | 16 | 218 | 14.5 | 25.7 | 0.00 | 0.00 | 0.00 | 81 | 1011.6 |
| 20260506062018 | 16 | 205 | 12.9 | 22.5 | 0.00 | 0.00 | 0.00 | 81 | 1011.7 |
| 20260506061517 | 16 | 215 | 11.3 | 22.5 | 0.00 | 0.00 | 0.00 | 81 | 1011.7 |
| 20260506061017 | 16 | 215 | 9.7 | 19.3 | 0.00 | 0.00 | 0.00 | 81 | 1011.7 |
| 20260506060517 | 16 | 213 | 12.9 | 19.3 | 0.00 | 0.00 | 0.00 | 81 | 1011.7 |
| 20260506051003 | 16 | 213 | 14.5 | 25.7 | 0.00 | 0.00 | 0.00 | 79 | 1012.1 |
| 20260506050501 | 16 | 215 | 12.9 | 25.7 | 0.00 | 0.00 | 0.00 | 78 | 1012.2 |
| 20260506045057 | 17 | 207 | 12.9 | 24.1 | 0.00 | 0.00 | 0.00 | 78 | 1012.3 |
| 20260506044703 | 17 | 225 | 11.3 | 24.1 | 0.00 | 0.00 | 0.00 | 78 | 1012.3 |
| 20260506044058 | 17 | 178 | 12.9 | 24.1 | 0.00 | 0.00 | 0.00 | 77 | 1012.2 |
| 20260506043556 | 17 | 227 | 12.9 | 27.4 | 0.00 | 0.00 | 0.00 | 78 | 1012.2 |
| 20260506043101 | 17 | 209 | 14.5 | 25.7 | 0.00 | 0.00 | 0.00 | 78 | 1012.2 |
| 20260506042553 | 17 | 226 | 14.5 | 24.1 | 0.00 | 0.00 | 0.00 | 78 | 1012.1 |
| 20260506042051 | 17 | 214 | 12.9 | 24.1 | 0.00 | 0.00 | 0.00 | 77 | 1012.1 |
| 20260506041601 | 17 | 209 | 12.9 | 27.4 | 0.00 | 0.00 | 0.00 | 77 | 1012.1 |
| 20260506041052 | 17 | 208 | 12.9 | 25.7 | 0.00 | 0.00 | 0.00 | 77 | 1012.1 |
| 20260506040552 | 17 | 224 | 12.9 | 27.4 | 0.00 | 0.00 | 0.00 | 77 | 1012.1 |
| 20260506040150 | 17 | 219 | 16.1 | 29.0 | 0.00 | 0.00 | 0.00 | 77 | 1012.1 |
| 20260506035549 | 17 | 238 | 16.1 | 24.1 | 0.00 | 0.00 | 0.00 | 76 | 1012.1 |
| 20260506035049 | 17 | 236 | 14.5 | 33.8 | 0.00 | 0.00 | 0.00 | 76 | 1012.1 |
| 20260506034622 | 17 | 213 | 16.1 | 33.8 | 0.00 | 0.00 | 0.00 | 76 | 1012.0 |
| 20260506034048 | 17 | 212 | 16.1 | 32.2 | 0.00 | 0.00 | 0.00 | 76 | 1012.1 |
| 20260506033547 | 17 | 216 | 16.1 | 32.2 | 0.00 | 0.00 | 0.00 | 76 | 1012.1 |
| 20260506033049 | 17 | 214 | 14.5 | 30.6 | 0.00 | 0.00 | 0.00 | 76 | 1012.1 |
| 20260506032548 | 17 | 178 | 14.5 | 32.2 | 0.00 | 0.00 | 0.00 | 76 | 1012.1 |
| 20260506032047 | 17 | 228 | 16.1 | 32.2 | 0.00 | 0.00 | 0.00 | 76 | 1012.1 |
| 20260506031547 | 17 | 211 | 12.9 | 27.4 | 0.00 | 0.00 | 0.00 | 76 | 1012.2 |
| 20260506031047 | 17 | 217 | 17.7 | 32.2 | 0.00 | 0.00 | 0.00 | 75 | 1012.1 |
| 20260506030547 | 17 | 204 | 17.7 | 32.2 | 0.00 | 0.00 | 0.00 | 75 | 1012.1 |
| 20260506030046 | 17 | 215 | 16.1 | 32.2 | 0.00 | 0.00 | 0.00 | 75 | 1012.2 |
| 20260506025546 | 17 | 198 | 16.1 | 29.0 | 0.00 | 0.00 | 0.00 | 75 | 1012.2 |
| 20260506025050 | 17 | 227 | 14.5 | 29.0 | 0.00 | 0.00 | 0.00 | 75 | 1012.2 |
| 20260506024546 | 17 | 211 | 16.1 | 25.7 | 0.00 | 0.00 | 0.00 | 75 | 1012.1 |
| 20260506024046 | 17 | 229 | 16.1 | 27.4 | 0.00 | 0.00 | 0.00 | 75 | 1012.2 |
| 20260506023546 | 18 | 225 | 17.7 | 32.2 | 0.00 | 0.00 | 0.00 | 74 | 1012.2 |
| 20260506023104 | 18 | 242 | 16.1 | 38.6 | 0.00 | 0.00 | 0.00 | 74 | 1012.1 |
| 20260506022545 | 18 | 196 | 16.1 | 40.2 | 0.00 | 0.00 | 0.00 | 74 | 1012.2 |
| 20260506022045 | 18 | 228 | 20.9 | 40.2 | 0.00 | 0.00 | 0.00 | 74 | 1012.2 |
| 20260506021546 | 18 | 225 | 20.9 | 38.6 | 0.00 | 0.00 | 0.00 | 73 | 1012.2 |